Location: Unspecified
(0.0000°N, 0.0000°E)
Time: 05:50:12
(UTC+00:00)

Vanguard 2 Rocket - Pass Details

Date: 08 October 2022
Orbit: 555 x 3321 km, 32.9° (Epoch: 06 December)

Event Time Altitude Azimuth Distance (km) Brightness Sun altitude
Rises 03:47:53 0° 326° (NW) 3,845 - -29.8°
Reaches altitude 10° 03:52:03 10° 346° (NNW) 2,449 - -28.7°
Exits shadow 03:54:24 15° 10° (N) 1,886 8.5 -28.2°
Maximum altitude 03:55:23 16° 24° (NNE) 1,769 8.5 -27.9°
Drops below altitude 10° 03:58:09 10° 64° (ENE) 1,965 9.3 -27.2°
Sets 04:00:57 0° 88° (E) 2,747 10.7 -26.5°
